CZ-6A DEB

Satellite information

Favourite Embed

Satellite Type and Status

DEBRISIN ORBIT

Key statistics

Satellite CZ-6A DEB at a glance.

Uptime

1129

Days in orbit

Revolutions

≈ 14.5

Per day

Orbit

SSO

Sun Synchronous Orbit

Inclination

98.7

Latest

Satellite identification and parameters

Extended collection of information and parameters for CZ-6A DEB.

Object identification

Identified? True

Debris? True

Object name: CZ-6A DEB

International designator: 2022-151YA

Object number (NORAD): 55528

Object ID (CCSDS): 55528

Country: PEOPLES REPUBLIC OF CHINA (PRC)

Current information (Y/N): Y

RCS size: SMALL

Orbital parameters

Period: 99.276 minutes

Inclination: 98.6521 deg

SMA: 7102.167 km

Apoapsis: 775.837 km

Periapsis: 672.227 km

RAAN: 27.9704 deg

Eccentricy: 0.00729427

Argument of periapsis: 102.973 deg

Mean anomaly: 257.9621 deg

Mean motion: 14.50495619 rev/day

Mean motion (dot): 0.00006737 rev/day2

B* drag term: 0.001674479 1/REarth

Two-line elements (TLE)

Creation date: Dec. 11, 2025, 10:54 a.m.

Reference frame: TEME

Reference center: EARTH

Epoch: Dec. 11, 2025, 1:37 a.m. UTC

TLE line 0: 0 CZ-6A DEB

TLE line 1: 1 55528U 22151YA 25345.06756219 .00006737 00000-0 16745-2 0 9999

TLE line 2: 2 55528 98.6521 27.9704 0072943 102.9730 257.9621 14.50495619156743

Live tracking on map

Real-time ground track for satellite CZ-6A DEB.

In-orbit conjunctions

A list of the most updated potential collisions computed for object CZ-6A DEB.

Target Orbit TCA Probability of collision Miss distance Type
CZ-6A DEB LEO 2025-02-27 00:09:53 0.0001544479 592.0 (m) DEBRIS
CZ-6A DEB LEO 2025-01-03 01:11:48 0.0001336036 220.0 (m) DEBRIS
COSMOS 1954 LEO 2024-10-03 01:37:56 0.0001115407 300.0 (m) PAYLOAD

Associated space launch

Chinese satellite reported for atmospheric/ocean/environmental/spatial parameter research purposes, details TBD.

CZ-6A DEB was lifted into orbit during the mission ‘Long March 6A | Yunhai 3’, on board a Long March 6A space rocket.

The launch took place on Nov. 11, 2022, 10:52 p.m. from Launch Complex 9A.

For more information about the launch, click the button.

Launch to space Long March 6A | Yunhai 3
Long March 6A | Yunhai 3

Agency: N/A

Status: Launch Successful

Launch date: Nov. 11, 2022, 10:52 p.m. UTC

Rocket: Long March 6A

Launch pad: Launch Complex 9A

Location: Taiyuan Satellite Launch Center, People's Republic of China

...

Latest news about this satellite

There are no fresh news available about this satellite. Check back as we update our databases every day.


Newsletter sign-up

Weekly statistics, charts and insights to help you stay on top of the space industry.